Location: ??????????
(48.4699°N, 37.9573°E)
Time: 21:11:14
(UTC+00:00)

CSL-04 Rocket - Pass Details

Date: 20 January 2021
Orbit: 806 x 860 km, 98.9° (Epoch: 02 March)

Event Time Altitude Azimuth Distance (km) Brightness Sun altitude
Rises 16:49:44 0° 175° (S) 3,348 6.8 -26.4°
Reaches altitude 10° 16:52:05 10° 179° (S) 2,427 6.1 -26.8°
Maximum altitude 16:57:23 59° 258° (WSW) 965 4.2 -27.6°
Drops below altitude 10° 17:02:49 10° 338° (NNW) 2,479 6.4 -28.5°
Sets 17:05:16 0° 343° (NNW) 3,426 7.1 -28.9°
